"startDT [UTC]","vpos","CH4 [ppm]","stdev(CH4) [ppm]","CO2 [ppm]","stdev(CO2) [ppm]","H2O_reported [%]","stdev(H2O_reported)","CavityPressure [torr]","CavityTemp [C]","OutletValve","CH4_dry [ppm]","CO2_dry [ppm]","DasTemp [C]","EtalonTemp [C]","WarmBoxTemp [C]","MPVPosition","T_ECpre [C]","T_EC1 [C]","T_EC2 [C]","p_inlet [hPa]","p_in [hPa]","p_out [hPa]","T_inlet [C]","RH_inlet [%]","dwpt_inlet [C]","T_vent [C]","RH_vent [%]","dwpt_vent [C]","flow_vent [l min-1]","flow_inlet [l min-1]","dwpt_sample [C]","T_room [C]"
2015-06-19 00:21:00,0.0,,,,,,,,,,,,,,,,,,0.11,-272.69,-272.76,3,1006,7,16.4,38.8,2.4,16.5,39.5,2.6,5.73,1.90,-1.6,15.3
2015-06-19 00:22:00,0.0,,,,,,,,,,,,,,,,,,0.11,-272.72,-272.77,0,1006,7,16.5,38.3,2.3,16.5,39.5,2.7,5.73,2.43,-1.6,15.6
2015-06-19 00:23:00,0.0,,,,,,,,,,,,,,,,,,0.11,-272.73,-272.77,3,1006,7,16.6,38.0,2.2,16.6,39.1,2.6,5.73,2.12,-1.6,15.9
2015-06-19 00:24:00,0.0,,,,,,,,,,,,,,,,,,0.11,-272.74,-272.79,2,1007,6,16.7,38.3,2.4,16.7,39.2,2.7,5.73,2.30,-1.6,16.2
2015-06-19 00:25:00,0.0,,,,,,,,,,,,,,,,,,0.11,-272.74,-272.79,0,1008,6,16.7,38.3,2.5,16.7,39.1,2.7,5.73,2.40,-0.8,16.6
2015-06-19 00:26:00,0.0,,,,,,,,,,,,,,,,,,0.11,-272.72,-272.79,1,1010,6,16.8,38.5,2.6,16.8,39.3,2.8,5.73,1.52,-0.4,17.0
2015-06-19 00:27:00,0.0,,,,,,,,,,,,,,,,,,0.11,-272.74,-272.79,4,1009,6,16.8,38.3,2.5,16.8,39.1,2.8,5.73,2.23,-0.5,17.4
2015-06-19 00:28:00,0.0,,,,,,,,,,,,,,,,,,0.11,-272.74,-272.80,1,1010,6,16.9,39.3,2.9,16.8,39.7,3.0,5.73,1.64,-0.5,17.7
2015-06-19 00:29:00,0.0,,,,,,,,,,,,,,,,,,0.11,-272.74,-272.80,2,1009,6,16.9,39.5,3.0,16.9,40.3,3.3,5.73,2.04,-0.6,18.1
2015-06-19 00:30:00,0.0,,,,,,,,,,,,,,,,,,0.11,-272.74,-272.80,3,1010,6,17.0,38.9,2.9,16.9,40.0,3.2,5.73,2.12,-0.6,18.4
2015-06-19 00:31:00,0.0,,,,,,,,,,,,,,,,,,0.11,-272.74,-272.81,0,1009,6,17.0,38.2,2.7,16.9,39.4,3.0,5.73,1.67,-0.6,18.7
2015-06-19 00:32:00,0.0,,,,,,,,,,,,,,,,,,0.11,-272.74,-272.82,3,1009,6,17.0,37.8,2.6,17.0,38.8,2.9,5.73,1.97,-0.7,19.0
2015-06-19 00:33:00,0.0,,,,,,,,,,,,,,,,,,0.10,-272.75,-272.81,2,1009,6,17.1,37.4,2.4,17.0,38.4,2.7,5.73,2.07,-0.7,19.3
2015-06-19 00:34:00,0.0,,,,,,,,,,,,,,,,,,0.10,-272.75,-272.81,1,1008,6,17.1,37.5,2.5,17.1,38.2,2.7,5.73,1.97,-0.7,19.5
2015-06-19 00:35:00,0.0,,,,,,,,,,,,,,,,,,0.11,-272.75,-272.81,1,1008,6,17.1,37.7,2.6,17.1,38.5,2.8,5.73,1.93,-0.7,19.8
2015-06-19 00:36:00,0.0,,,,,,,,,,,,,,,,,,0.11,-272.75,-272.81,2,1007,5,17.2,37.7,2.6,17.1,38.5,2.8,5.73,1.93,-0.7,20.0
2015-06-19 00:37:00,0.0,,,,,,,,,,,,,,,,,,0.10,-272.75,-272.81,2,1007,6,17.3,37.4,2.6,17.2,38.4,2.9,5.73,1.92,-0.7,20.3
2015-06-19 00:38:00,0.0,,,,,,,,,,,,,,,,,,0.10,-272.75,-272.82,2,1008,5,17.3,37.3,2.6,17.2,38.2,2.8,5.73,1.87,-0.7,20.5
2015-06-19 00:39:00,0.0,,,,,,,,,,,,,,,,,,0.11,-272.74,-272.81,2,1007,5,17.3,37.4,2.6,17.2,38.3,2.9,5.73,1.84,-0.7,20.7
2015-06-19 00:40:00,0.0,,,,,,,,,,,,,,,,,,0.10,-272.75,-272.80,2,1007,5,17.4,37.3,2.6,17.3,38.2,2.9,5.73,1.96,-0.7,20.9
2015-06-19 00:41:00,0.0,,,,,,,,,,,,,,,,,,0.10,-272.75,-272.81,1,1006,5,17.4,37.0,2.6,17.3,38.2,2.9,5.73,2.05,-0.8,21.1
2015-06-19 00:42:00,0.0,,,,,,,,,,,,,,,,,,0.10,-272.74,-272.81,1,983,5,17.5,36.5,2.5,17.4,37.7,2.8,5.73,1.83,-0.7,21.3
2015-06-19 00:43:00,0.0,,,,,,,,,,,,,,,,,,0.10,-272.74,-272.81,1,976,5,17.6,36.5,2.5,17.4,37.7,2.8,5.73,2.05,-0.7,21.5
2015-06-19 00:44:00,0.0,,,,,,,,,,,,,,,,,,0.10,-272.75,-272.81,1,976,5,17.6,36.3,2.5,17.5,37.6,2.8,5.73,1.87,-0.7,21.7
2015-06-19 00:45:00,0.0,,,,,,,,,,,,,,,,,,0.10,-272.75,-272.81,2,976,5,17.7,36.1,2.5,17.5,37.4,2.8,5.73,2.08,-0.7,21.8
2015-06-19 00:46:00,0.0,,,,,,,,,,,,,,,,,,0.10,-272.74,-272.81,1,976,5,17.7,35.9,2.5,17.6,37.2,2.8,5.73,1.84,-0.7,22.0
2015-06-19 00:47:00,0.0,,,,,,,,,,,,,,,,,,0.10,-272.75,-272.80,1,976,4,17.8,36.0,2.5,17.6,37.2,2.8,5.73,2.01,-0.7,22.2
2015-06-19 00:48:00,0.0,,,,,,,,,,,,,,,,,,0.10,-272.76,-272.81,2,976,4,17.9,36.2,2.6,17.6,37.4,2.9,5.73,2.02,-0.7,22.3
2015-06-19 00:49:00,0.0,1.87750,0.00053,397.211,0.121,0.9338,0.0021,140.010,44.856,33860.56414,1.90181,401.800,29.674,45.019,45.004,0.00,0.10,-272.74,-272.81,1,976,4,17.9,36.0,2.6,17.7,37.5,3.0,5.73,1.89,-0.7,22.4
2015-06-19 00:50:00,0.0,1.87722,0.00038,397.529,0.111,0.9265,0.0031,140.011,44.924,33964.62965,1.89486,402.086,29.912,45.077,45.044,0.00,0.10,-272.74,-272.81,2,975,4,18.0,35.4,2.5,17.8,36.9,2.9,5.73,1.91,-0.7,22.6
2015-06-19 00:51:00,0.0,1.87671,0.00064,397.448,0.106,0.9312,0.0039,140.005,44.969,34066.69504,1.89446,402.038,30.234,45.116,45.065,0.00,0.10,-272.75,-272.81,2,975,4,18.1,35.6,2.6,17.8,36.9,2.9,5.73,2.00,-0.7,22.7
2015-06-19 00:52:00,0.0,1.87687,0.00034,397.325,0.090,0.9340,0.0041,140.005,44.977,34141.59465,1.89462,401.925,30.542,45.127,45.066,0.00,0.10,-272.74,-272.80,1,975,4,18.1,35.6,2.7,17.9,36.9,2.9,5.73,2.02,-0.7,22.8
2015-06-19 00:53:00,0.0,1.87650,0.00038,397.148,0.101,0.9534,0.0043,140.003,44.967,34195.92680,1.89467,401.839,30.850,45.123,45.056,0.00,0.10,-272.74,-272.79,1,975,4,18.2,36.1,2.9,17.9,37.5,3.2,5.73,1.98,-0.6,23.0
2015-06-19 00:54:00,0.0,1.87701,0.00064,397.242,0.092,0.9473,0.0089,140.003,44.949,34229.12865,1.89500,401.913,31.116,45.111,45.042,0.00,0.10,-272.75,-272.80,1,975,4,18.3,35.3,2.7,18.0,37.1,3.1,5.73,1.94,-0.6,23.1
2015-06-19 00:55:00,0.0,1.87789,0.00034,397.288,0.063,0.9279,0.0024,140.002,44.934,34251.83174,1.89553,401.855,31.377,45.098,45.027,0.00,0.10,-272.75,-272.81,2,975,4,18.3,34.7,2.5,18.0,36.2,2.8,5.73,1.92,-0.6,23.2
2015-06-19 00:56:00,0.0,1.87801,0.00039,397.234,0.031,0.9354,0.0017,140.000,44.926,34261.68504,1.89579,401.838,31.604,45.085,45.015,0.00,0.10,-272.74,-272.80,2,974,4,18.4,34.8,2.6,18.1,36.2,2.9,5.73,1.93,-0.6,23.3
2015-06-19 00:57:00,0.0,1.87814,0.00019,397.194,0.056,0.9396,0.0033,140.003,44.924,34265.56721,1.89604,401.819,31.810,45.075,45.006,0.00,0.10,-272.74,-272.81,2,974,4,18.5,34.7,2.6,18.1,36.2,2.9,5.73,1.95,-0.6,23.4
2015-06-19 00:58:00,0.0,1.87854,0.00029,397.188,0.075,0.9391,0.0018,140.000,44.927,34263.81652,1.89641,401.812,31.992,45.067,44.999,0.00,0.10,-272.75,-272.81,2,974,4,18.5,34.6,2.6,18.2,36.1,2.9,5.73,1.95,-0.6,23.6
2015-06-19 00:59:00,0.0,1.87811,0.00050,397.148,0.059,0.9451,0.0035,139.998,44.934,34261.99644,1.89613,401.802,32.145,45.063,44.996,0.00,0.10,-272.74,-272.80,1,974,4,18.6,34.7,2.7,18.3,36.2,3.0,5.73,1.96,-0.6,23.7
2015-06-19 01:00:00,3.0,1.87061,0.00317,397.213,0.533,0.2332,0.3039,139.789,44.944,31317.08527,1.87597,398.535,32.287,45.060,44.994,0.00,0.10,-272.74,-272.80,2,496,3,18.7,34.3,2.6,18.3,35.7,2.9,5.73,1.86,-0.6,23.8
2015-06-19 01:01:00,3.0,1.87400,0.00035,396.882,0.063,0.0444,0.0022,139.995,44.955,31194.63034,1.87477,397.094,32.439,45.059,44.994,0.00,0.10,-272.74,-272.81,2,496,3,18.7,34.1,2.6,18.4,35.5,2.9,5.73,1.93,-0.5,23.9
2015-06-19 01:02:00,3.0,1.87443,0.00039,397.141,0.091,0.0372,0.0020,139.999,44.965,31144.85592,1.87514,397.313,32.578,45.060,44.994,0.00,0.10,-272.74,-272.81,2,496,3,18.8,33.8,2.5,18.5,35.2,2.8,5.73,1.94,-0.5,24.0
2015-06-19 01:03:00,3.0,1.87437,0.00040,397.335,0.047,0.0324,0.0027,139.998,44.973,31108.10783,1.87494,397.486,32.726,45.060,44.995,0.00,0.10,-272.74,-272.80,2,496,3,18.9,33.5,2.5,18.5,34.9,2.7,5.73,1.94,-0.5,24.1
2015-06-19 01:04:00,3.0,1.87480,0.00037,397.398,0.030,0.0256,0.0025,139.997,44.980,31074.10413,1.87525,397.522,32.859,45.061,44.997,0.00,0.10,-272.74,-272.80,2,496,3,19.0,33.5,2.6,18.6,35.0,2.8,5.73,1.95,-0.5,24.2
2015-06-19 01:05:00,3.0,1.87495,0.00029,397.425,0.018,0.0199,0.0024,139.998,44.986,31048.56811,1.87534,397.522,32.991,45.062,44.998,0.00,0.10,-272.75,-272.80,2,496,3,19.1,33.0,2.4,18.7,34.5,2.7,5.73,1.95,-0.5,24.3
2015-06-19 01:06:00,3.0,1.87493,0.00028,397.443,0.030,0.0153,0.0018,139.997,44.990,31028.41994,1.87522,397.515,33.121,45.063,44.998,0.00,0.10,-272.75,-272.80,2,496,3,19.2,32.9,2.4,18.8,34.3,2.7,5.73,1.95,-0.4,24.4
2015-06-19 01:07:00,3.0,1.87518,0.00032,397.449,0.032,0.0140,0.0030,139.997,44.992,31010.25570,1.87543,397.516,33.243,45.064,44.999,0.00,0.10,-272.74,-272.80,2,496,3,19.2,32.7,2.4,18.9,34.2,2.7,5.73,1.94,-0.4,24.5
2015-06-19 01:08:00,3.0,1.87523,0.00034,397.464,0.023,0.0108,0.0017,140.000,44.994,30996.61002,1.87542,397.515,33.353,45.065,44.999,0.00,0.10,-272.74,-272.81,2,496,3,19.3,32.6,2.5,18.9,34.0,2.7,5.73,1.90,-0.4,24.7
2015-06-19 01:09:00,3.0,1.87521,0.00026,397.475,0.031,0.0097,0.0013,140.003,44.996,30985.78979,1.87538,397.521,33.455,45.065,45.000,0.00,0.10,-272.73,-272.80,2,496,3,19.5,32.6,2.6,19.0,34.1,2.8,5.73,1.88,-0.4,24.7
2015-06-19 01:10:00,3.0,1.87484,0.00021,397.478,0.033,0.0085,0.0017,140.000,44.997,30975.39060,1.87501,397.520,33.559,45.065,45.000,0.00,0.10,-272.73,-272.79,1,496,3,19.5,32.5,2.6,19.2,33.9,2.9,5.73,1.89,-0.4,24.9
2015-06-19 01:11:00,3.0,1.87502,0.00024,397.493,0.036,0.0082,0.0021,140.000,44.998,30968.25418,1.87518,397.531,33.668,45.065,45.000,0.00,0.10,-272.74,-272.80,1,496,2,19.6,32.3,2.6,19.2,33.7,2.9,5.73,1.95,-0.4,25.0
2015-06-19 01:12:00,3.0,1.87503,0.00035,397.506,0.040,0.0065,0.0026,139.999,44.998,30959.11172,1.87515,397.537,33.776,45.065,45.000,0.00,0.10,-272.74,-272.81,1,496,2,19.7,32.2,2.7,19.3,33.6,2.9,5.73,1.98,-0.4,25.1
2015-06-19 01:13:00,3.0,1.87518,0.00041,397.545,0.036,0.0062,0.0019,140.000,44.999,30952.06922,1.87527,397.573,33.867,45.066,45.000,0.00,0.10,-272.73,-272.80,2,496,2,19.8,32.1,2.7,19.4,33.5,2.9,5.73,1.93,-0.3,25.2
2015-06-19 01:14:00,3.0,1.87490,0.00035,397.507,0.029,0.0052,0.0015,139.997,44.999,30947.89921,1.87502,397.534,33.967,45.066,45.001,0.00,0.10,-272.73,-272.80,2,496,2,19.9,32.0,2.7,19.5,33.4,3.0,5.73,1.85,-0.3,25.3
2015-06-19 01:15:00,3.0,1.87493,0.00029,397.518,0.021,0.0047,0.0022,140.000,45.000,30946.44601,1.87500,397.540,34.058,45.066,45.001,0.00,0.10,-272.74,-272.80,3,496,2,20.0,31.9,2.8,19.6,33.3,3.0,5.73,1.87,-0.3,25.4
2015-06-19 01:16:00,3.0,1.87506,0.00024,397.508,0.030,0.0049,0.0018,139.999,45.000,30942.27001,1.87515,397.532,34.157,45.066,45.001,0.00,0.10,-272.74,-272.79,1,496,2,20.1,32.0,2.9,19.7,33.4,3.1,5.73,1.98,-0.3,25.5
2015-06-19 01:17:00,3.0,1.87543,0.00025,397.540,0.032,0.0040,0.0018,140.002,45.001,30940.89902,1.87552,397.561,34.251,45.066,45.001,0.00,0.10,-272.73,-272.80,2,496,2,20.2,31.9,2.9,19.8,33.4,3.2,5.73,1.94,-0.3,25.7
2015-06-19 01:18:00,3.0,1.87533,0.00034,397.536,0.024,0.0038,0.0018,140.004,45.001,30939.35790,1.87541,397.553,34.340,45.066,45.000,0.00,0.10,-272.74,-272.80,2,496,2,20.3,31.5,2.8,19.9,33.0,3.1,5.73,1.82,-0.2,25.8
2015-06-19 01:19:00,3.0,1.87533,0.00032,397.543,0.033,0.0037,0.0013,140.001,45.001,30938.08261,1.87541,397.560,34.421,45.066,45.001,0.00,0.10,-272.74,-272.80,2,496,2,20.4,31.2,2.8,19.9,32.7,3.1,5.73,1.92,-0.2,25.9
2015-06-19 01:20:00,3.0,1.87540,0.00034,397.549,0.032,0.0039,0.0019,140.001,45.001,30938.28390,1.87545,397.567,34.511,45.066,45.000,0.00,0.10,-272.73,-272.80,2,496,2,20.5,31.1,2.8,20.0,32.5,3.0,5.73,1.97,-0.2,26.0
2015-06-19 01:21:00,3.0,1.87544,0.00037,397.532,0.034,0.0037,0.0028,140.000,45.001,30936.62610,1.87550,397.549,34.590,45.066,45.000,0.00,0.10,-272.74,-272.80,1,495,1,20.6,30.9,2.8,20.1,32.4,3.1,5.73,1.83,-0.2,26.1
2015-06-19 01:22:00,3.0,1.87563,0.00032,397.552,0.035,0.0041,0.0016,140.002,45.001,30937.29347,1.87567,397.572,34.671,45.066,45.000,0.00,0.10,-272.73,-272.79,2,495,1,20.7,30.7,2.8,20.2,32.1,3.0,5.73,1.89,-0.2,26.2
2015-06-19 01:23:00,3.0,1.87543,0.00031,397.558,0.046,0.0035,0.0026,140.000,45.001,30938.91990,1.87554,397.574,34.749,45.066,45.000,0.00,0.10,-272.74,-272.79,2,495,1,20.7,30.7,2.9,20.3,32.1,3.1,5.73,1.97,-0.1,26.2
2015-06-19 01:24:00,3.0,1.87580,0.00029,397.539,0.028,0.0033,0.0029,140.002,45.001,30940.52665,1.87583,397.555,34.825,45.066,45.000,0.00,0.10,-272.73,-272.79,1,495,1,20.8,30.4,2.8,20.4,31.9,3.1,5.73,1.81,-0.1,26.3
2015-06-19 01:25:00,2.0,1.85031,0.01137,391.044,3.148,0.0526,0.0795,140.023,45.001,31484.20353,1.85273,391.481,34.892,45.066,45.000,0.00,0.10,-272.74,-272.80,2,580,1,20.9,30.1,2.7,20.5,31.5,3.0,5.73,1.93,-0.1,26.4
2015-06-19 01:26:00,2.0,1.84544,0.00041,389.508,0.032,0.0197,0.0014,140.000,45.001,31548.05699,1.84581,389.600,34.970,45.066,45.000,0.00,0.10,-272.73,-272.80,2,582,1,21.0,30.1,2.8,20.5,31.5,3.0,5.73,1.93,-0.1,26.5
2015-06-19 01:27:00,2.0,1.84542,0.00035,389.503,0.025,0.0182,0.0022,140.000,45.001,31561.30851,1.84575,389.589,35.022,45.066,45.001,0.00,0.10,-272.73,-272.80,2,582,1,21.1,29.9,2.8,20.6,31.2,3.0,5.73,1.79,-0.1,26.6
2015-06-19 01:28:00,2.0,1.84562,0.00040,389.551,0.033,0.0134,0.0023,140.000,45.001,31572.31129,1.84582,389.611,35.089,45.066,45.001,0.00,0.10,-272.74,-272.80,2,582,1,21.2,29.8,2.8,20.7,31.1,3.0,5.73,1.97,-0.1,26.7
2015-06-19 01:29:00,2.0,1.84575,0.00027,389.562,0.035,0.0111,0.0023,140.000,45.001,31581.39105,1.84596,389.616,35.147,45.066,45.001,0.00,0.10,-272.73,-272.80,2,583,1,21.2,29.6,2.7,20.8,31.0,3.0,5.73,1.84,-0.0,26.8
2015-06-19 01:30:00,2.0,1.84558,0.00035,389.576,0.027,0.0077,0.0025,140.003,45.001,31592.01395,1.84573,389.612,35.207,45.066,45.001,0.00,0.10,-272.74,-272.79,2,583,0,21.3,29.1,2.6,20.9,30.5,2.9,5.73,1.87,0.0,26.9
2015-06-19 01:31:00,2.0,1.84544,0.00036,389.583,0.036,0.0060,0.0011,139.998,45.001,31599.65424,1.84555,389.611,35.274,45.066,45.001,0.00,0.10,-272.74,-272.79,1,583,0,21.4,28.9,2.5,20.9,30.3,2.8,5.73,1.93,0.0,26.9
2015-06-19 01:32:00,2.0,1.84551,0.00028,389.582,0.028,0.0044,0.0021,139.997,45.001,31605.44510,1.84557,389.601,35.327,45.066,45.001,0.00,0.10,-272.73,-272.80,2,583,0,21.4,28.6,2.5,21.0,30.0,2.8,5.73,1.80,0.0,27.0
2015-06-19 01:33:00,2.0,1.84559,0.00034,389.601,0.028,0.0042,0.0020,139.999,45.001,31610.07345,1.84569,389.619,35.395,45.066,45.001,0.00,0.10,-272.73,-272.79,2,583,0,21.5,28.5,2.5,21.1,29.8,2.7,5.73,1.98,0.1,27.1
2015-06-19 01:34:00,2.0,1.84603,0.00043,389.579,0.032,0.0037,0.0019,140.003,45.001,31613.40657,1.84604,389.598,35.453,45.066,45.001,0.00,0.10,-272.73,-272.79,2,583,0,21.6,28.2,2.4,21.2,29.5,2.6,5.73,1.78,0.1,27.2
2015-06-19 01:35:00,2.0,1.84623,0.00029,389.599,0.026,0.0031,0.0021,139.999,45.001,31616.31424,1.84631,389.612,35.505,45.066,45.001,0.00,0.10,-272.74,-272.79,3,583,-0,21.7,28.0,2.4,21.2,29.2,2.6,5.73,1.95,0.1,27.2
2015-06-19 01:36:00,2.0,1.84588,0.00034,389.595,0.032,0.0028,0.0016,140.002,45.001,31623.06174,1.84592,389.609,35.565,45.066,45.000,0.00,0.10,-272.73,-272.79,1,583,-0,21.7,28.0,2.4,21.3,29.2,2.7,5.73,1.81,0.2,27.3
2015-06-19 01:37:00,2.0,1.84605,0.00033,389.592,0.031,0.0021,0.0027,140.000,45.001,31625.53509,1.84608,389.604,35.630,45.066,45.001,0.00,0.10,-272.73,-272.79,3,583,-0,21.8,27.9,2.4,21.4,29.1,2.7,5.73,1.93,0.2,27.4
2015-06-19 01:38:00,2.0,1.84620,0.00038,389.614,0.027,0.0024,0.0018,140.003,45.001,31629.18250,1.84625,389.624,35.687,45.066,45.000,0.00,0.10,-272.73,-272.80,2,583,-0,21.9,27.6,2.4,21.5,28.8,2.6,5.73,1.81,0.2,27.5
2015-06-19 01:39:00,2.0,1.84619,0.00037,389.616,0.035,0.0020,0.0023,139.998,45.001,31631.18809,1.84623,389.625,35.747,45.066,45.000,0.00,0.10,-272.73,-272.80,3,583,-0,22.0,27.4,2.3,21.5,28.5,2.5,5.73,1.91,0.2,27.5
2015-06-19 01:40:00,2.0,1.84611,0.00034,389.596,0.024,0.0015,0.0018,140.000,45.001,31635.18605,1.84613,389.605,35.795,45.066,45.000,0.00,0.10,-272.72,-272.80,3,582,-1,22.0,27.3,2.3,21.6,28.4,2.5,5.73,1.79,0.3,27.6
2015-06-19 01:41:00,2.0,1.84592,0.00041,389.611,0.031,0.0017,0.0015,140.002,45.001,31637.96393,1.84598,389.618,35.848,45.066,45.000,0.00,0.10,-272.73,-272.79,2,582,0,22.1,27.2,2.3,21.7,28.3,2.5,5.73,1.92,0.3,27.6
2015-06-19 01:42:00,2.0,1.84605,0.00034,389.593,0.038,0.0022,0.0014,140.000,45.001,31638.81956,1.84606,389.605,35.885,45.066,45.000,0.00,0.10,-272.73,-272.80,3,581,-0,22.1,27.2,2.3,21.7,28.2,2.5,5.73,1.78,0.3,27.7
2015-06-19 01:43:00,2.0,1.84604,0.00024,389.610,0.031,0.0014,0.0014,139.997,45.001,31639.92486,1.84606,389.615,35.944,45.066,45.000,0.00,0.10,-272.73,-272.79,2,582,-1,22.2,27.2,2.4,21.8,28.2,2.6,5.73,1.93,0.3,27.8
2015-06-19 01:44:00,2.0,1.84613,0.00037,389.630,0.032,0.0009,0.0020,140.003,45.001,31642.79931,1.84615,389.633,35.999,45.066,45.000,0.00,0.10,-272.73,-272.79,2,580,-4,22.3,27.1,2.4,21.9,28.1,2.6,5.73,1.74,0.3,27.8
2015-06-19 01:45:00,2.0,1.84637,0.00041,389.607,0.020,0.0008,0.0012,139.996,45.001,31642.41183,1.84639,389.612,36.049,45.066,45.000,0.00,0.10,-272.73,-272.79,2,582,-1,22.3,27.2,2.5,21.9,28.2,2.6,5.73,1.93,0.4,27.9
2015-06-19 01:46:00,2.0,1.84608,0.00031,389.613,0.029,0.0024,0.0018,140.003,45.001,31646.12889,1.84614,389.622,36.089,45.066,45.000,0.00,0.10,-272.73,-272.79,3,582,-1,22.4,27.1,2.5,22.0,28.1,2.7,5.73,1.76,0.4,28.0
2015-06-19 01:47:00,2.0,1.84623,0.00041,389.624,0.023,0.0029,0.0017,140.003,45.001,31646.75594,1.84628,389.637,36.136,45.066,45.000,0.00,0.10,-272.72,-272.79,2,582,-1,22.5,26.8,2.5,22.1,27.9,2.6,5.73,1.86,0.4,28.0
2015-06-19 01:48:00,2.0,1.84615,0.00031,389.628,0.022,0.0016,0.0020,140.004,45.001,31651.94767,1.84618,389.635,36.191,45.066,45.000,0.00,0.10,-272.73,-272.79,4,582,-2,22.5,26.7,2.4,22.1,27.7,2.6,5.73,1.82,0.4,28.0
2015-06-19 01:49:00,2.0,1.84601,0.00026,389.626,0.035,0.0016,0.0020,139.997,45.001,31650.85384,1.84606,389.636,36.243,45.066,45.000,0.00,0.10,-272.73,-272.79,3,582,-2,22.6,26.7,2.5,22.2,27.6,2.6,5.73,1.76,0.5,28.1
2015-06-19 01:50:00,4.0,1.77653,0.02854,371.429,7.977,0.0063,0.0052,140.013,45.001,31312.70270,1.78031,371.945,36.284,45.066,45.000,0.00,0.10,-272.72,-272.79,3,517,-2,22.6,26.7,2.5,22.3,27.6,2.7,5.73,1.91,0.5,28.2
2015-06-19 01:51:00,4.0,1.76363,0.00022,367.729,0.042,0.0027,0.0015,140.000,45.001,31295.58121,1.76365,367.738,36.336,45.066,45.000,0.00,0.10,-272.72,-272.79,4,517,-2,22.7,26.6,2.5,22.3,27.5,2.7,5.73,1.70,0.5,28.3
2015-06-19 01:52:00,4.0,1.76401,0.00031,367.741,0.027,0.0021,0.0014,139.997,45.001,31289.32659,1.76403,367.750,36.377,45.066,45.000,0.00,0.10,-272.73,-272.80,4,517,-2,22.8,26.5,2.5,22.4,27.4,2.7,5.73,1.79,0.5,28.3
2015-06-19 01:53:00,4.0,1.76379,0.00034,367.769,0.033,0.0030,0.0026,140.001,45.001,31281.49132,1.76388,367.782,36.426,45.066,45.001,0.00,0.10,-272.73,-272.79,5,517,-2,22.8,26.5,2.5,22.4,27.3,2.7,5.73,1.83,0.6,28.4
2015-06-19 01:54:00,4.0,1.76366,0.00033,367.723,0.033,0.0034,0.0023,139.999,45.001,31276.96527,1.76373,367.738,36.458,45.066,45.000,0.00,0.10,-272.72,-272.79,4,516,-2,22.8,26.3,2.5,22.5,27.2,2.6,5.73,1.67,0.6,28.4
2015-06-19 01:55:00,4.0,1.76354,0.00030,367.699,0.025,0.0029,0.0025,139.998,45.001,31274.57940,1.76357,367.711,36.499,45.066,45.000,0.00,0.10,-272.73,-272.80,5,516,-2,22.9,26.3,2.5,22.6,27.1,2.6,5.73,1.75,0.6,28.5
2015-06-19 01:56:00,4.0,1.76362,0.00048,367.695,0.034,0.0036,0.0019,140.001,45.001,31272.84050,1.76365,367.711,36.535,45.065,45.000,0.00,0.10,-272.73,-272.79,6,516,-2,22.9,26.2,2.5,22.6,27.0,2.7,5.73,1.77,0.6,28.5
2015-06-19 01:57:00,4.0,1.76356,0.00042,367.696,0.026,0.0027,0.0019,139.997,45.001,31269.33754,1.76365,367.708,36.589,45.065,45.000,0.00,0.10,-272.72,-272.79,5,515,-2,22.9,26.2,2.5,22.6,26.9,2.7,5.73,1.62,0.7,28.6
2015-06-19 01:58:00,4.0,1.76361,0.00027,367.688,0.024,0.0024,0.0024,140.004,45.001,31268.75972,1.76363,367.698,36.637,45.065,45.000,0.00,0.10,-272.73,-272.79,7,515,-3,23.0,26.0,2.5,22.7,26.9,2.7,5.73,1.68,0.7,28.6
2015-06-19 01:59:00,4.0,1.76369,0.00034,367.707,0.030,0.0020,0.0020,140.003,45.001,31267.47736,1.76371,367.716,36.688,45.065,45.000,0.00,0.10,-272.73,-272.79,6,515,-3,23.0,25.8,2.4,22.7,26.7,2.6,5.73,1.77,0.7,28.7
2015-06-19 02:00:00,4.0,1.76360,0.00022,367.698,0.025,0.0022,0.0017,140.002,45.000,31265.99753,1.76365,367.707,36.688,45.065,44.999,0.00,0.10,-272.72,-272.78,6,515,-3,23.1,25.8,2.4,22.8,26.4,2.5,5.73,1.64,0.8,28.8
2015-06-19 02:01:00,4.0,1.76364,0.00039,367.701,0.019,0.0022,0.0018,140.000,45.000,31262.07824,1.76367,367.711,36.649,45.064,44.999,0.00,0.10,-272.72,-272.79,7,515,-3,23.1,25.8,2.4,22.8,26.4,2.5,5.73,1.63,0.8,28.8
2015-06-19 02:02:00,4.0,1.76348,0.00036,367.697,0.036,0.0007,0.0018,140.002,44.999,31258.13232,1.76350,367.700,36.583,45.063,44.998,0.00,0.10,-272.73,-272.79,6,515,-3,23.1,25.6,2.3,22.9,26.3,2.5,5.73,1.79,0.8,28.9
2015-06-19 02:03:00,4.0,1.76381,0.00027,367.713,0.016,0.0018,0.0011,140.001,44.998,31251.56019,1.76383,367.720,36.501,45.063,44.997,0.00,0.10,-272.72,-272.79,7,515,-3,23.1,25.5,2.3,22.8,26.1,2.4,5.73,1.59,0.8,28.8
2015-06-19 02:04:00,4.0,1.76379,0.00038,367.725,0.023,0.0014,0.0020,140.000,44.997,31245.26222,1.76380,367.730,36.381,45.062,44.997,0.00,0.10,-272.72,-272.79,6,515,-3,23.1,25.5,2.3,22.8,26.0,2.3,5.73,1.75,0.8,28.8
2015-06-19 02:05:00,4.0,1.76371,0.00033,367.712,0.027,0.0016,0.0019,139.999,44.997,31238.95186,1.76374,367.719,36.263,45.062,44.997,0.00,0.10,-272.72,-272.79,6,515,-3,23.1,25.5,2.3,22.9,26.0,2.3,5.73,1.64,0.8,28.7
2015-06-19 02:06:00,4.0,1.76373,0.00028,367.723,0.024,0.0003,0.0016,140.000,44.997,31232.09534,1.76374,367.726,36.110,45.062,44.997,0.00,0.10,-272.72,-272.79,5,515,-3,23.1,25.6,2.3,22.8,26.0,2.3,5.73,1.74,0.8,28.7
2015-06-19 02:07:00,4.0,1.76351,0.00032,367.706,0.027,0.0012,0.0019,140.000,44.996,31223.85339,1.76354,367.711,35.964,45.062,44.997,0.00,0.10,-272.72,-272.78,5,515,-3,23.0,25.7,2.3,22.8,26.0,2.3,5.73,1.70,0.8,28.7
2015-06-19 02:08:00,4.0,1.76373,0.00029,367.714,0.026,0.0002,0.0013,140.000,44.996,31215.00361,1.76369,367.713,35.798,45.063,44.997,0.00,0.10,-272.73,-272.79,4,514,-3,23.0,25.7,2.3,22.8,26.1,2.4,5.73,1.81,0.7,28.7
2015-06-19 02:09:00,4.0,1.76389,0.00021,367.732,0.028,0.0014,0.0018,139.998,44.996,31203.89870,1.76392,367.738,35.621,45.063,44.998,0.00,0.10,-272.73,-272.79,3,514,-3,23.0,25.7,2.3,22.8,26.1,2.3,5.73,1.66,0.7,28.6
2015-06-19 02:10:00,4.0,1.76396,0.00022,367.712,0.024,0.0013,0.0014,140.002,44.996,31197.78886,1.76399,367.717,35.448,45.063,44.998,0.00,0.10,-272.73,-272.79,2,514,-3,23.0,25.7,2.3,22.8,26.1,2.4,5.73,1.87,0.7,28.4
2015-06-19 02:11:00,4.0,1.76370,0.00025,367.735,0.026,0.0005,0.0017,140.000,44.996,31188.41910,1.76373,367.736,35.275,45.063,44.998,0.00,0.10,-272.72,-272.78,1,514,-4,23.1,25.7,2.4,22.9,26.2,2.4,5.73,1.82,0.8,28.1
2015-06-19 02:12:00,4.0,1.76400,0.00040,367.731,0.034,0.0002,0.0014,140.007,44.996,31178.61928,1.76397,367.732,35.080,45.063,44.998,0.00,0.10,-272.73,-272.79,1,514,-4,23.1,25.8,2.4,22.8,26.3,2.5,5.73,1.73,0.8,27.9
2015-06-19 02:13:00,4.0,1.76380,0.00028,367.718,0.021,0.0004,0.0021,140.003,44.997,31169.63765,1.76382,367.719,34.888,45.064,44.998,0.00,0.10,-272.72,-272.78,-0,514,-4,23.1,25.3,2.2,22.8,26.1,2.4,5.73,1.83,0.8,27.9
2015-06-19 02:14:00,4.0,1.76395,0.00023,367.734,0.023,0.0008,0.0016,139.999,44.997,31156.98804,1.76397,367.739,34.717,45.064,44.998,0.00,0.10,-272.72,-272.78,-0,514,-4,23.2,25.1,2.1,22.9,25.8,2.3,5.73,1.87,0.8,27.9
2015-06-19 02:15:00,1.0,1.82266,0.01841,382.416,5.105,0.0255,0.0206,140.046,44.997,31641.56961,1.82013,382.130,34.515,45.064,44.998,0.00,0.10,-272.73,-272.79,-2,592,-4,23.2,25.1,2.1,22.9,25.8,2.3,5.73,1.80,0.9,27.8
2015-06-19 02:16:00,1.0,1.82507,0.00028,384.227,0.055,0.0162,0.0023,140.003,44.996,31650.09208,1.82539,384.299,34.313,45.064,44.998,0.00,0.10,-272.73,-272.79,-2,593,-4,23.1,25.2,2.1,22.9,25.9,2.3,5.73,1.86,0.8,27.8
2015-06-19 02:17:00,1.0,1.82504,0.00033,384.296,0.038,0.0138,0.0022,140.001,44.996,31645.70687,1.82527,384.357,34.103,45.064,44.998,0.00,0.10,-272.72,-272.79,-2,593,-4,23.1,25.2,2.1,22.8,25.9,2.3,5.73,1.86,0.8,27.9
2015-06-19 02:18:00,1.0,1.82525,0.00039,384.328,0.026,0.0112,0.0020,140.003,44.996,31637.54598,1.82542,384.381,33.889,45.064,44.998,0.00,0.10,-272.72,-272.79,-2,592,-4,23.1,25.2,2.1,22.9,26.0,2.3,5.73,1.86,0.8,27.9
2015-06-19 02:19:00,1.0,1.82509,0.00031,384.329,0.019,0.0079,0.0020,140.000,44.996,31634.48449,1.82527,384.365,33.679,45.065,44.999,0.00,0.10,-272.73,-272.80,-3,591,-4,23.1,25.0,2.0,22.9,25.8,2.2,5.73,1.89,0.8,27.8
2015-06-19 02:20:00,1.0,1.82516,0.00040,384.313,0.033,0.0051,0.0015,140.001,44.997,31626.63209,1.82522,384.340,33.498,45.065,44.999,0.00,0.10,-272.72,-272.79,-3,591,-4,23.1,25.2,2.1,22.9,25.9,2.3,5.73,1.92,0.7,27.8
2015-06-19 02:21:00,1.0,1.82524,0.00026,384.350,0.029,0.0046,0.0017,140.001,44.997,31620.43976,1.82533,384.370,33.346,45.065,44.999,0.00,0.10,-272.72,-272.79,-4,591,-4,23.1,25.2,2.1,22.9,26.0,2.3,5.73,1.94,0.7,27.7
2015-06-19 02:22:00,1.0,1.82534,0.00033,384.362,0.036,0.0035,0.0026,139.998,44.997,31612.41860,1.82540,384.378,33.199,45.066,44.999,0.00,0.10,-272.73,-272.79,-4,590,-4,23.1,25.1,2.0,22.8,25.9,2.3,5.73,1.92,0.7,27.7